Tracking 34706 objects as of 10-Jul-2026
HD Live streaming from Space Station
objects crossing your sky now

DIADEME 2

Track DIADEME 2 now!
10-day predictions
DIADEME 2 is classified as:


NORAD ID: 2680
Int'l Code: 1967-014A
Perigee: 585.2 km
Apogee: 1,632.0 km
Inclination: 39.4 °
Period: 107.3 minutes
Semi major axis: 7479 km
RCS: 0.6374 m2 (medium)
Launch date: February 15, 1967
Source: France (FR)
Launch site: HAMMA GUIRA SPACE TRACK RANGE (HGSTR)
Your satellite tracking list
Your tracking list is empty




NASA's NSSDC Master Catalog

Two Line Element Set (TLE):
1 02680U 67014A   26190.47872251  .00000810  00000-0  35131-3 0  9993
2 02680  39.4403 358.9226 0699756 170.6720 190.7802 13.42100575878964
Source of the keplerian elements: AFSPC